Location: Cherry Springs State Park
(41.6616°N, 77.8240°W)
Time: 14:20:44
(UTC-04:00)

Daily predictions for brighter satellites

Satellite Brightness Start Highest point End
(mag) Time Altitude Azimuth Time Altitude Azimuth Time Altitude Azimuth
SPOT 3 Rocket 3.7 19:24:47 10° SSE 19:29:56 83° WSW 19:35:08 10° NNW
Meteor 1-15 Rocket 4.4 19:24:12 10° S 19:30:06 90° E 19:35:57 10° N
Cosmos 1709 Rocket 4.1 19:25:15 10° S 19:31:33 75° E 19:37:57 10° N
Cosmos 1378 3.5 19:33:04 10° N 19:36:41 42° ENE 19:40:17 10° SSE
Cosmos 1898 Rocket 3.6 19:32:20 10° NNW 19:37:33 84° WSW 19:42:42 10° SSE
ATLAS CENTAUR R/B 4.0 19:21:21 10° NW 19:38:36 67° NE 19:44:05 10° ESE
Cosmos 1271 Rocket 2.8 19:34:51 10° SSW 19:38:37 80° W 19:42:27 10° N
Cosmos 2084 3.4 19:34:48 10° SSW 19:38:48 52° ESE 19:42:37 10° NE
Cosmos 1943 4.2 19:33:52 10° SW 19:39:23 51° WNW 19:44:57 10° NNE
Cosmos 1814 Rocket 3.9 19:34:51 10° S 19:39:58 68° ESE 19:45:05 10° NNE
USA 234 4.3 19:35:21 10° SSE 19:41:35 46° SW 19:47:53 10° WNW
Cosmos 990 Rocket 3.9 19:38:41 10° NNW 19:43:52 71° ENE 19:48:58 10° SSE
Cosmos 1340 Rocket 2.9 19:42:36 10° N 19:46:42 89° WSW 19:50:46 10° S
Milstar 3 Cent rocket 4.0 19:49:12 10° S 19:50:43 11° SSE 19:52:10 10° SSE
Resurs 01 Rocket 2.8 19:50:39 10° ESE 19:54:09 24° ENE 19:57:40 10° NNE
Cosmos 2228 3.0 19:50:02 10° S 19:54:19 60° E 19:58:36 10° NNE
USA 81 4.0 19:52:36 10° N 19:57:54 74° E 20:03:10 10° S
Envisat 4.1 19:54:45 11° ESE 19:58:27 24° ENE 20:02:28 10° NNE
GP-B 4.4 19:55:11 10° NE 19:58:29 20° E 20:01:09 13° SE
Geosat 4.1 19:53:59 10° SSE 19:59:01 84° WSW 20:04:05 10° NNW
Cosmos 2184 Rocket 4.2 19:54:09 10° SSE 20:00:11 51° E 20:06:18 10° NNE
CZ-2D R/B 4.1 19:57:37 10° SE 20:00:51 29° ENE 20:04:11 10° N
Cosmos 2150 Rocket 4.2 19:56:25 10° NNW 20:01:47 81° WSW 20:07:10 10° SSE
Cosmos 1606 Rocket 4.4 20:00:13 10° SSW 20:04:28 55° W 20:08:45 10° N
Cosmos 1953 Rocket 4.0 20:02:00 10° NNW 20:06:17 63° W 20:10:32 10° S
Cosmos 304 Rocket 3.7 20:01:56 10° S 20:06:41 69° ESE 20:11:28 10° NNE
Cosmos 2058 Rocket 3.1 20:03:38 10° S 20:07:58 87° W 20:12:23 10° N
USA 186 3.7 20:10:59 11° NE 20:10:59 11° NE 20:11:08 10° NE
Meteor 1-24 Rocket 3.9 20:04:05 10° N 20:10:01 59° ENE 20:15:43 10° SSE
ATLAS 2AS CENTAUR R/B 4.4 20:04:14 10° NNW 20:10:29 23° NNE 20:15:31 13° ENE
Cosmos 1943 Rocket 3.5 20:07:58 10° NW 20:13:12 42° WSW 20:18:26 10° S
Cosmos 1356 Rocket 3.4 20:13:08 10° N 20:17:26 78° ENE 20:21:45 10° SSE
Cosmos 841 Rocket 3.5 20:12:18 10° SSW 20:17:27 87° WNW 20:22:37 10° NNE
SJ-6B 2.8 20:14:05 10° SSE 20:18:07 90° N 20:22:05 10° NNW
NOSS 3-1 (A) 4.1 20:13:11 10° NNW 20:20:49 74° NE 20:28:17 14° SE
Cosmos 1953 4.2 20:22:47 15° NE 20:22:47 15° NE 20:24:01 10° NE
Cosmos 2327 Rocket 4.4 20:15:33 10° S 20:21:36 68° E 20:27:39 10° NNE
ALOS 3.8 20:20:10 10° SSW 20:24:30 38° W 20:28:53 10° NNW
NOSS 3-1 (C) 4.2 20:22:20 10° NW 20:30:01 80° WSW 20:38:29 10° SSE
HJ-1C 4.1 20:31:47 10° S 20:35:03 54° W 20:38:22 10° NNW
H-2A R/B 3.8 20:33:24 10° S 20:36:57 44° W 20:40:34 10° NNW
Cosmos 540 Rocket 3.3 20:33:04 10° S 20:38:08 73° ESE 20:43:15 10° NNE
MOS 1-B Rocket 3.8 20:46:10 16° SSE 20:51:19 75° ENE 20:57:00 10° N
Cosmos 1766 4.2 20:51:22 10° SSW 20:55:11 48° W 20:58:59 10° N
COSMOS 2406 3.4 20:50:50 10° SSW 20:56:32 72° WNW 21:02:17 10° NNE
BREEZE M DEB (TANK) 3.1 20:54:27 10° WNW 21:00:02 52° SW 21:00:22 49° SSW
Cosmos 1758 3.4 21:04:38 63° NNE 21:04:38 63° NNE 21:08:05 10° N
Spot 2 Rocket 3.5 21:01:55 26° S 21:04:48 79° WSW 21:09:52 10° NNW
Cosmos 2154 Rocket 3.9 20:58:59 10° S 21:05:12 88° E 21:11:31 10° N
Meteor 1-21 Rocket 4.2 21:01:11 10° N 21:06:55 64° ENE 21:08:06 51° SE
YAOGAN 6 4.3 21:09:19 24° N 21:09:19 24° N 21:10:57 10° N
Resurs 1-3 4.0 21:06:53 29° S 21:09:00 60° WSW 21:13:22 10° NNW
Cosmos 2369 4.2 21:06:33 10° N 21:11:53 41° ENE 21:11:53 41° ENE
Cosmos 1939 Rocket 3.3 21:16:00 53° N 21:16:00 53° N 21:19:05 10° NNW
Cosmos 1674 3.7 21:11:55 10° N 21:14:20 38° N 21:14:20 38° N
Cosmos 2341 Rocket 3.8 21:10:05 13° S 21:15:45 76° E 21:21:59 10° N
Cosmos 783 Rocket 4.4 21:17:26 10° SSW 21:22:39 85° WNW 21:27:52 10° NNE
ERS-1 Rocket 4.2 21:31:52 31° NNE 21:31:52 31° NNE 21:34:49 10° N
Resurs 01 Rocket 3.2 21:28:06 20° SSW 21:30:27 33° W 21:34:27 10° NNW
GEOS 3 Rocket 3.8 21:34:02 60° SSW 21:34:02 60° SSW 21:38:25 10° SSW
FALCON 9 R/B 3.0 21:31:34 10° WSW 21:34:47 40° SSW 21:34:47 40° SSW
Envisat 4.0 21:34:58 27° SSW 21:37:12 42° W 21:42:02 10° NNW
Gblst 52 Del rocket 4.4 21:33:40 10° NW 21:41:06 88° SW 21:41:39 77° SE
Cosmos 2218 Rocket 4.4 21:45:54 48° NNE 21:45:54 48° NNE 21:50:25 10° NNE
Cosmos 2285 Rocket 4.1 21:46:04 65° NE 21:46:04 65° NE 21:51:32 10° NNE
H-2A R/B 3.9 21:49:43 19° NNE 21:49:43 19° NNE 21:51:22 10° N
Cosmos 2278 3.9 21:41:23 10° NNW 21:46:09 61° N 21:46:09 61° N
Meteor 2-21 4.4 21:49:25 85° W 21:49:25 85° W 21:55:36 10° N
ATLAS 2AS CENTAUR R/B 2.9 21:55:01 10° NNW 22:02:57 70° NE 22:02:57 70° NE
SL-8 Rocket 4.3 22:11:19 61° NW 22:11:19 61° NW 22:16:57 10° N
Cosmos 1697 Rocket 3.8 22:06:20 10° NNW 22:09:50 38° N 22:09:50 38° N
Cosmos 1980 Rocket 3.7 22:07:35 10° NNW 22:10:25 27° N 22:10:25 27° N
BREEZE-M DEB (TANK) 4.3 22:12:14 10° WNW 22:24:49 49° N 22:24:49 49° N
SL-16 R/B 4.4 22:33:39 10° N 22:35:11 16° N 22:35:11 16° N
